When you browse on this site, cookies collect data to enhance your experience and personalize the content and advertising you see.
Visit our Privacy Policy to learn more. By continuing to use the site, you agree to this use of cookies and data.
  • In Romania
  • List of Countries
  • For 7 days
  • Water Temperature
  • Satellite Maps
  • Weather Map
  • Weather Widgets
  • user-avatar
    Login

    Hourly Weather Namibe

    Today, 16 June, Sunday

    Time Temperature Precipitation Wind Pressure Humidity
    00:00 +23°C° 0 mm 1 mps 761 mmHg 58%
    01:00 +22°C° 0 mm 1 mps 761 mmHg 69%
    02:00 +22°C° 0 mm 1 mps 760 mmHg 68%
    03:00 +22°C° 0 mm 1 mps 760 mmHg 66%
    04:00 +19°C° 0 mm 0 mps 759 mmHg 65%
    05:00 +20°C° 0 mm 0 mps 760 mmHg 63%
    06:00 +20°C° 0 mm 0 mps 760 mmHg 61%
    07:00 +20°C° 0 mm 0 mps 761 mmHg 60%
    08:00 +23°C° 0 mm 0 mps 761 mmHg 51%
    09:00 +26°C° 0 mm 0 mps 761 mmHg 42%
    10:00 +28°C° 0 mm 0 mps 761 mmHg 33%
    11:00 +31°C° 0 mm 2 mps 760 mmHg 32%
    12:00 +31°C° 0 mm 3 mps 760 mmHg 31%
    13:00 +33°C° 0 mm 4 mps 759 mmHg 30%
    14:00 +32°C° 0 mm 4 mps 759 mmHg 33%
    15:00 +30°C° 0 mm 4 mps 759 mmHg 35%
    16:00 +29°C° 0 mm 4 mps 758 mmHg 38%
    17:00 +27°C° 0 mm 3 mps 759 mmHg 44%
    18:00 +26°C° 0 mm 2 mps 760 mmHg 51%
    19:00 +24°C° 0 mm 1 mps 760 mmHg 58%
    20:00 +24°C° 0 mm 1 mps 761 mmHg 55%
    21:00 +24°C° 0 mm 2 mps 761 mmHg 53%
    22:00 +24°C° 0 mm 2 mps 761 mmHg 51%
    23:00 +24°C° 0 mm 3 mps 762 mmHg 49%

    Tomorrow, 17 June, Monday

    Time Temperature Precipitation Wind Pressure Humidity
    00:00 +24°C° 0 mm 3 mps 762 mmHg 48%
    01:00 +24°C° 0 mm 3 mps 762 mmHg 46%
    02:00 +22°C° 0 mm 3 mps 761 mmHg 45%
    03:00 +23°C° 0 mm 2 mps 761 mmHg 44%
    04:00 +21°C° 0 mm 2 mps 761 mmHg 44%
    05:00 +21°C° 0 mm 2 mps 761 mmHg 42%
    06:00 +21°C° 0 mm 2 mps 761 mmHg 41%
    07:00 +21°C° 0 mm 2 mps 762 mmHg 40%
    08:00 +25°C° 0 mm 2 mps 762 mmHg 34%
    09:00 +28°C° 0 mm 2 mps 762 mmHg 27%
    10:00 +30°C° 0 mm 2 mps 762 mmHg 21%
    11:00 +31°C° 0 mm 3 mps 761 mmHg 21%
    12:00 +33°C° 0 mm 4 mps 761 mmHg 21%
    13:00 +34°C° 0 mm 4 mps 760 mmHg 21%
    14:00 +32°C° 0 mm 5 mps 760 mmHg 25%
    15:00 +30°C° 0 mm 5 mps 759 mmHg 29%
    16:00 +29°C° 0 mm 5 mps 759 mmHg 32%
    17:00 +27°C° 0 mm 4 mps 759 mmHg 38%
    18:00 +26°C° 0 mm 3 mps 759 mmHg 43%
    19:00 +24°C° 0 mm 3 mps 760 mmHg 49%
    20:00 +24°C° 0 mm 3 mps 760 mmHg 48%
    21:00 +23°C° 0 mm 2 mps 760 mmHg 47%
    22:00 +23°C° 0 mm 2 mps 761 mmHg 46%
    23:00 +22°C° 0 mm 3 mps 761 mmHg 46%

    Day after tomorrow, 18 June, Tuesday

    Time Temperature Precipitation Wind Pressure Humidity
    00:00 +22°C° 0 mm 3 mps 761 mmHg 46%
    01:00 +21°C° 0 mm 3 mps 761 mmHg 46%
    02:00 +21°C° 0 mm 3 mps 761 mmHg 47%
    03:00 +21°C° 0 mm 3 mps 761 mmHg 48%
    04:00 +20°C° 0 mm 3 mps 760 mmHg 49%
    05:00 +20°C° 0 mm 3 mps 761 mmHg 49%
    06:00 +20°C° 0 mm 3 mps 761 mmHg 50%
    07:00 +20°C° 0 mm 2 mps 761 mmHg 51%
    08:00 +24°C° 0 mm 2 mps 761 mmHg 44%
    09:00 +26°C° 0 mm 2 mps 761 mmHg 37%
    10:00 +29°C° 0 mm 2 mps 761 mmHg 31%
    11:00 +29°C° 0 mm 3 mps 761 mmHg 31%
    12:00 +30°C° 0 mm 3 mps 760 mmHg 32%
    13:00 +32°C° 0 mm 4 mps 759 mmHg 32%
    14:00 +30°C° 0 mm 4 mps 759 mmHg 35%
    15:00 +29°C° 0 mm 4 mps 759 mmHg 38%
    16:00 +28°C° 0 mm 4 mps 758 mmHg 41%
    17:00 +27°C° 0 mm 3 mps 758 mmHg 47%
    18:00 +25°C° 0 mm 2 mps 759 mmHg 54%
    19:00 +23°C° 0 mm 1 mps 759 mmHg 60%
    20:00 +24°C° 0 mm 1 mps 760 mmHg 57%
    21:00 +24°C° 0 mm 1 mps 760 mmHg 54%
    22:00 +24°C° 0 mm 1 mps 760 mmHg 51%
    23:00 +24°C° 0 mm 1 mps 760 mmHg 50%

    19 June, Wednesday

    Time Temperature Precipitation Wind Pressure Humidity
    00:00 +24°C° 0 mm 2 mps 760 mmHg 48%
    01:00 +24°C° 0 mm 2 mps 760 mmHg 46%
    02:00 +23°C° 0 mm 2 mps 760 mmHg 46%
    03:00 +23°C° 0 mm 2 mps 760 mmHg 47%
    04:00 +23°C° 0 mm 2 mps 760 mmHg 47%
    05:00 +23°C° 0 mm 2 mps 760 mmHg 47%
    06:00 +23°C° 0 mm 2 mps 760 mmHg 46%
    07:00 +23°C° 0 mm 2 mps 761 mmHg 46%
    08:00 +26°C° 0 mm 2 mps 761 mmHg 40%
    09:00 +28°C° 0 mm 2 mps 761 mmHg 35%
    10:00 +31°C° 0 mm 2 mps 761 mmHg 29%
    11:00 +31°C° 0 mm 2 mps 760 mmHg 30%
    12:00 +31°C° 0 mm 3 mps 760 mmHg 30%
    13:00 +33°C° 0 mm 4 mps 759 mmHg 31%
    14:00 +30°C° 0 mm 4 mps 759 mmHg 36%
    15:00 +29°C° 0 mm 4 mps 758 mmHg 40%
    16:00 +28°C° 0 mm 4 mps 758 mmHg 44%
    17:00 +26°C° 0 mm 3 mps 759 mmHg 51%
    18:00 +25°C° 0 mm 2 mps 759 mmHg 58%
    19:00 +24°C° 0 mm 1 mps 760 mmHg 65%
    20:00 +23°C° 0 mm 2 mps 760 mmHg 63%
    21:00 +23°C° 0 mm 2 mps 761 mmHg 62%
    22:00 +22°C° 0 mm 3 mps 761 mmHg 60%
    23:00 +24°C° 0 mm 2 mps 761 mmHg 57%

    20 June, Thursday

    Time Temperature Precipitation Wind Pressure Humidity
    00:00 +24°C° 0 mm 2 mps 761 mmHg 54%
    01:00 +24°C° 0 mm 2 mps 761 mmHg 50%
    02:00 +24°C° 0 mm 2 mps 761 mmHg 49%
    03:00 +24°C° 0 mm 2 mps 760 mmHg 48%
    04:00 +24°C° 0 mm 2 mps 760 mmHg 47%
    05:00 +24°C° 0 mm 2 mps 760 mmHg 46%
    06:00 +24°C° 0 mm 3 mps 760 mmHg 45%
    07:00 +24°C° 0 mm 3 mps 761 mmHg 44%
    08:00 +27°C° 0 mm 3 mps 761 mmHg 36%
    09:00 +30°C° 0 mm 3 mps 761 mmHg 29%
    10:00 +34°C° 0 mm 3 mps 761 mmHg 21%
    11:00 +35°C° 0 mm 3 mps 760 mmHg 20%
    12:00 +36°C° 0 mm 3 mps 759 mmHg 20%
    13:00 +37°C° 0 mm 3 mps 759 mmHg 19%
    14:00 +36°C° 0 mm 4 mps 758 mmHg 21%
    15:00 +35°C° 0 mm 4 mps 758 mmHg 24%
    16:00 +34°C° 0 mm 5 mps 757 mmHg 26%
    17:00 +30°C° 0 mm 4 mps 758 mmHg 33%
    18:00 +28°C° 0 mm 3 mps 759 mmHg 39%
    19:00 +26°C° 0 mm 3 mps 759 mmHg 45%
    20:00 +25°C° 0 mm 2 mps 760 mmHg 46%
    21:00 +25°C° 0 mm 2 mps 760 mmHg 48%
    22:00 +24°C° 0 mm 1 mps 760 mmHg 49%
    23:00 +24°C° 0 mm 1 mps 760 mmHg 51%

    21 June, Friday

    Time Temperature Precipitation Wind Pressure Humidity
    00:00 +23°C° 0 mm 1 mps 760 mmHg 53%
    01:00 +22°C° 0 mm 1 mps 760 mmHg 55%
    02:00 +23°C° 0 mm 1 mps 759 mmHg 52%
    03:00 +23°C° 0 mm 1 mps 759 mmHg 48%
    04:00 +23°C° 0 mm 2 mps 759 mmHg 45%
    05:00 +24°C° 0 mm 2 mps 759 mmHg 40%
    06:00 +24°C° 0 mm 3 mps 759 mmHg 35%
    07:00 +24°C° 0 mm 3 mps 760 mmHg 31%
    08:00 +27°C° 0 mm 3 mps 760 mmHg 26%
    09:00 +31°C° 0 mm 3 mps 760 mmHg 21%
    10:00 +35°C° 0 mm 3 mps 760 mmHg 16%
    11:00 +36°C° 0 mm 3 mps 759 mmHg 16%
    12:00 +37°C° 0 mm 3 mps 758 mmHg 15%
    13:00 +38°C° 0 mm 3 mps 758 mmHg 15%
    14:00 +36°C° 0 mm 4 mps 757 mmHg 20%
    15:00 +34°C° 0 mm 4 mps 757 mmHg 25%
    16:00 +32°C° 0 mm 5 mps 756 mmHg 30%
    17:00 +29°C° 0 mm 4 mps 757 mmHg 38%
    18:00 +27°C° 0 mm 4 mps 757 mmHg 46%
    19:00 +25°C° 0 mm 3 mps 758 mmHg 54%
    20:00 +24°C° 0 mm 3 mps 758 mmHg 54%
    21:00 +24°C° 0 mm 3 mps 759 mmHg 55%
    22:00 +24°C° 0 mm 2 mps 759 mmHg 55%
    23:00 +23°C° 0 mm 2 mps 759 mmHg 54%
    Show more